When you browse on this site, cookies collect data to enhance your experience and personalize the content and advertising you see.
Visit our Privacy Policy to learn more. By continuing to use the site, you agree to this use of cookies and data.
  • In Spain
  • List of Countries
  • For 7 days
  • Water Temperature
  • Satellite Maps
  • Weather Map
  • Weather Widgets
  • user-avatar
    Login

    Hourly Weather Seattle

    Today, 21 April, Sunday

    Time Temperature Precipitation Wind Pressure Humidity
    00:00 +3°C° 0.3 mm 3 mps 646 mmHg 90%
    01:00 +3°C° 0.3 mm 3 mps 646 mmHg 90%
    02:00 +3°C° 0.3 mm 3 mps 647 mmHg 90%
    03:00 +3°C° 0.2 mm 3 mps 647 mmHg 90%
    04:00 +2°C° 0.2 mm 3 mps 648 mmHg 89%
    05:00 +2°C° 0.2 mm 3 mps 648 mmHg 89%
    06:00 +2°C° 0.1 mm 3 mps 649 mmHg 86%
    07:00 +2°C° 0.1 mm 3 mps 649 mmHg 83%
    08:00 +4°C° 0.1 mm 2 mps 649 mmHg 80%
    09:00 +4°C° 0 mm 2 mps 650 mmHg 77%
    10:00 +5°C° 0 mm 2 mps 650 mmHg 74%
    11:00 +5°C° 0 mm 2 mps 650 mmHg 70%
    12:00 +6°C° 0 mm 2 mps 650 mmHg 67%
    13:00 +7°C° 0 mm 2 mps 650 mmHg 64%
    14:00 +8°C° 0 mm 2 mps 650 mmHg 60%
    15:00 +8°C° 0 mm 2 mps 650 mmHg 59%
    16:00 +9°C° 0 mm 2 mps 650 mmHg 58%
    17:00 +9°C° 0 mm 2 mps 650 mmHg 56%
    18:00 +8°C° 0 mm 2 mps 650 mmHg 61%
    19:00 +8°C° 0 mm 1 mps 650 mmHg 65%
    20:00 +7°C° 0 mm 1 mps 650 mmHg 70%
    21:00 +6°C° 0 mm 1 mps 650 mmHg 71%
    22:00 +6°C° 0 mm 1 mps 650 mmHg 73%
    23:00 +4°C° 0 mm 2 mps 650 mmHg 74%

    Tomorrow, 22 April, Monday

    Time Temperature Precipitation Wind Pressure Humidity
    00:00 +4°C° 0 mm 2 mps 650 mmHg 75%
    01:00 +4°C° 0 mm 2 mps 650 mmHg 75%
    02:00 +3°C° 0 mm 2 mps 650 mmHg 76%
    03:00 +3°C° 0 mm 2 mps 651 mmHg 76%
    04:00 +3°C° 0 mm 2 mps 651 mmHg 77%
    05:00 +2°C° 0 mm 3 mps 651 mmHg 77%
    06:00 +5°C° 0 mm 2 mps 651 mmHg 72%
    07:00 +6°C° 0 mm 2 mps 652 mmHg 67%
    08:00 +8°C° 0 mm 2 mps 652 mmHg 63%
    09:00 +10°C° 0 mm 2 mps 652 mmHg 56%
    10:00 +12°C° 0 mm 3 mps 652 mmHg 49%
    11:00 +13°C° 0 mm 3 mps 652 mmHg 42%
    12:00 +14°C° 0 mm 3 mps 652 mmHg 40%
    13:00 +16°C° 0 mm 3 mps 652 mmHg 39%
    14:00 +17°C° 0 mm 3 mps 652 mmHg 37%
    15:00 +17°C° 0 mm 4 mps 651 mmHg 37%
    16:00 +17°C° 0 mm 4 mps 651 mmHg 37%
    17:00 +16°C° 0 mm 5 mps 650 mmHg 37%
    18:00 +14°C° 0 mm 4 mps 650 mmHg 43%
    19:00 +12°C° 0 mm 4 mps 649 mmHg 50%
    20:00 +10°C° 0 mm 3 mps 649 mmHg 56%
    21:00 +9°C° 0 mm 3 mps 649 mmHg 57%
    22:00 +8°C° 0 mm 4 mps 649 mmHg 58%
    23:00 +7°C° 0 mm 4 mps 649 mmHg 59%

    Day after tomorrow, 23 April, Tuesday

    Time Temperature Precipitation Wind Pressure Humidity
    00:00 +7°C° 0 mm 4 mps 648 mmHg 59%
    01:00 +7°C° 0 mm 4 mps 648 mmHg 59%
    02:00 +7°C° 0 mm 4 mps 648 mmHg 59%
    03:00 +7°C° 0 mm 4 mps 648 mmHg 60%
    04:00 +8°C° 0 mm 3 mps 648 mmHg 62%
    05:00 +8°C° 0 mm 3 mps 649 mmHg 63%
    06:00 +9°C° 0.2 mm 3 mps 649 mmHg 63%
    07:00 +8°C° 0.2 mm 4 mps 649 mmHg 63%
    08:00 +10°C° 0.2 mm 4 mps 649 mmHg 64%
    09:00 +10°C° 0 mm 5 mps 649 mmHg 60%
    10:00 +11°C° 0 mm 7 mps 650 mmHg 57%
    11:00 +12°C° 0 mm 8 mps 650 mmHg 54%
    12:00 +13°C° 0 mm 8 mps 650 mmHg 52%
    13:00 +15°C° 0 mm 8 mps 649 mmHg 50%
    14:00 +15°C° 0 mm 9 mps 649 mmHg 48%
    15:00 +15°C° 0 mm 8 mps 649 mmHg 49%
    16:00 +15°C° 0 mm 8 mps 649 mmHg 50%
    17:00 +15°C° 0 mm 8 mps 648 mmHg 50%
    18:00 +13°C° 0 mm 6 mps 648 mmHg 56%
    19:00 +12°C° 0 mm 4 mps 648 mmHg 62%
    20:00 +11°C° 0 mm 1 mps 647 mmHg 68%
    21:00 +9°C° 0 mm 2 mps 647 mmHg 70%
    22:00 +9°C° 0 mm 2 mps 647 mmHg 73%
    23:00 +8°C° 0 mm 2 mps 647 mmHg 75%

    24 April, Wednesday

    Time Temperature Precipitation Wind Pressure Humidity
    00:00 +8°C° 0 mm 2 mps 647 mmHg 76%
    01:00 +8°C° 0 mm 2 mps 647 mmHg 77%
    02:00 +7°C° 0 mm 2 mps 647 mmHg 78%
    03:00 +7°C° 0 mm 2 mps 647 mmHg 79%
    04:00 +5°C° 0 mm 3 mps 647 mmHg 80%
    05:00 +5°C° 0 mm 3 mps 647 mmHg 82%
    06:00 +7°C° 0 mm 3 mps 647 mmHg 73%
    07:00 +8°C° 0 mm 4 mps 648 mmHg 64%
    08:00 +10°C° 0 mm 5 mps 648 mmHg 55%
    09:00 +12°C° 0 mm 5 mps 649 mmHg 48%
    10:00 +13°C° 0 mm 6 mps 649 mmHg 40%
    11:00 +14°C° 0 mm 6 mps 649 mmHg 33%
    12:00 +15°C° 0 mm 6 mps 649 mmHg 31%
    13:00 +15°C° 0 mm 6 mps 649 mmHg 29%
    14:00 +16°C° 0 mm 6 mps 649 mmHg 26%
    15:00 +16°C° 0 mm 6 mps 649 mmHg 27%
    16:00 +15°C° 0 mm 6 mps 649 mmHg 28%
    17:00 +15°C° 0 mm 6 mps 649 mmHg 29%
    18:00 +13°C° 0 mm 5 mps 648 mmHg 35%
    19:00 +11°C° 0 mm 4 mps 648 mmHg 40%
    20:00 +10°C° 0 mm 2 mps 648 mmHg 45%
    21:00 +9°C° 0 mm 2 mps 648 mmHg 48%
    22:00 +8°C° 0 mm 2 mps 649 mmHg 50%
    23:00 +7°C° 0 mm 2 mps 649 mmHg 53%

    25 April, Thursday

    Time Temperature Precipitation Wind Pressure Humidity
    00:00 +7°C° 0 mm 3 mps 649 mmHg 54%
    01:00 +5°C° 0 mm 3 mps 649 mmHg 56%
    02:00 +5°C° 0 mm 3 mps 649 mmHg 57%
    03:00 +5°C° 0 mm 3 mps 649 mmHg 56%
    04:00 +5°C° 0 mm 2 mps 649 mmHg 56%
    05:00 +5°C° 0 mm 2 mps 649 mmHg 56%
    06:00 +6°C° 0 mm 2 mps 650 mmHg 52%
    07:00 +8°C° 0 mm 2 mps 650 mmHg 48%
    08:00 +9°C° 0 mm 2 mps 650 mmHg 45%
    09:00 +10°C° 0 mm 2 mps 650 mmHg 43%
    10:00 +12°C° 0 mm 2 mps 650 mmHg 40%
    11:00 +12°C° 0 mm 3 mps 650 mmHg 38%
    12:00 +14°C° 0 mm 3 mps 650 mmHg 35%
    13:00 +16°C° 0 mm 3 mps 650 mmHg 33%
    14:00 +17°C° 0 mm 3 mps 649 mmHg 30%
    15:00 +17°C° 0 mm 3 mps 649 mmHg 31%
    16:00 +17°C° 0 mm 3 mps 649 mmHg 32%
    17:00 +17°C° 0 mm 4 mps 648 mmHg 33%
    18:00 +14°C° 0 mm 3 mps 648 mmHg 39%
    19:00 +14°C° 0 mm 2 mps 647 mmHg 46%
    20:00 +12°C° 0 mm 2 mps 647 mmHg 52%
    21:00 +10°C° 0 mm 2 mps 646 mmHg 54%
    22:00 +11°C° 0 mm 1 mps 646 mmHg 56%
    23:00 +10°C° 0 mm 1 mps 646 mmHg 58%

    26 April, Friday

    Time Temperature Precipitation Wind Pressure Humidity
    00:00 +9°C° 0 mm 2 mps 645 mmHg 59%
    01:00 +9°C° 0 mm 2 mps 645 mmHg 61%
    02:00 +8°C° 0 mm 2 mps 645 mmHg 62%
    03:00 +8°C° 0 mm 3 mps 645 mmHg 63%
    04:00 +8°C° 0 mm 3 mps 645 mmHg 63%
    05:00 +8°C° 0 mm 3 mps 644 mmHg 64%
    06:00 +10°C° 0 mm 3 mps 645 mmHg 61%
    07:00 +12°C° 0 mm 3 mps 645 mmHg 58%
    08:00 +13°C° 0 mm 3 mps 645 mmHg 55%
    09:00 +16°C° 0 mm 3 mps 645 mmHg 47%
    10:00 +19°C° 0 mm 4 mps 645 mmHg 39%
    11:00 +21°C° 0 mm 4 mps 646 mmHg 32%
    12:00 +22°C° 0 mm 4 mps 645 mmHg 30%
    13:00 +22°C° 0 mm 4 mps 645 mmHg 28%
    14:00 +23°C° 0 mm 5 mps 644 mmHg 27%
    15:00 +21°C° 0.4 mm 5 mps 644 mmHg 33%
    16:00 +20°C° 0.4 mm 6 mps 643 mmHg 40%
    17:00 +18°C° 0.4 mm 7 mps 642 mmHg 47%
    18:00 +16°C° 0.3 mm 6 mps 642 mmHg 52%
    19:00 +14°C° 0.3 mm 4 mps 642 mmHg 58%
    20:00 +13°C° 0.3 mm 3 mps 642 mmHg 63%
    21:00 +12°C° 0.1 mm 4 mps 642 mmHg 65%
    22:00 +10°C° 0.1 mm 5 mps 642 mmHg 66%
    23:00 +9°C° 0.1 mm 6 mps 642 mmHg 67%
    Show more